Tracking 27126 objects as of 30-Mar-2023
HD Live streaming from Space Station
objects crossing your sky now

SL-14 R/B

Track SL-14 R/B now!
10-day predictions
SL-14 R/B is classified as:


NORAD ID: 14820
Int'l Code: 1984-027B
Perigee: 611.5 km
Apogee: 635.5 km
Inclination: 82.5 °
Period: 97.0 minutes
Semi major axis: 6994 km
RCS: 3.863 m2 (large)
Launch date: March 15, 1984
Source: Commonwealth of Independent States (former USSR) (CIS)
Launch site: PLESETSK MISSILE AND SPACE COMPLEX (PKMTR)

Note: This is a ROCKET BODY
Your satellite tracking list
Your tracking list is empty




NASA's NSSDC Master Catalog

Two Line Element Set (TLE):
1 14820U 84027B   23088.77640825  .00000970  00000-0  11319-3 0  9990
2 14820  82.5454 172.4869 0017165 293.7555  66.1860 14.84125321 87955
Source of the keplerian elements: AFSPC